EW0139 Weather Reports


time (UTC)temp
C
wind
direction
speed
KPH
gust
KPH
rain 1hr
cm
rain 24hr
cm
rain mn
cm
humidity
%
barometer
mb
20260505175817 4 294 29.0 38.6 0.00 0.00 0.00 42 1017.4
20260505174741 4 313 40.2 40.2 0.00 0.00 0.00 42 1017.3
20260505173744 3 309 24.1 37.0 0.00 0.00 0.00 41 1017.3
20260505172745 3 286 33.8 41.8 0.00 0.00 0.00 42 1017.4
20260505171806 3 302 29.0 46.7 0.00 0.00 0.00 43 1017.4
20260505170745 3 297 32.2 41.8 0.00 0.00 0.00 43 1017.4
20260505165746 3 285 27.4 43.5 0.00 0.00 0.00 44 1017.5
20260505164750 3 288 25.7 43.5 0.00 0.00 0.00 44 1017.5
20260505163811 3 291 25.7 41.8 0.00 0.00 0.00 45 1017.4
20260505162749 2 292 27.4 40.2 0.00 0.00 0.00 46 1017.4
20260505161815 2 294 24.1 43.5 0.00 0.00 0.00 46 1017.3
20260505160818 2 302 24.1 40.2 0.00 0.00 0.00 47 1017.2
20260505152740 2 300 33.8 40.2 0.00 0.00 0.00 49 1017.1
20260505151802 2 300 22.5 33.8 0.00 0.00 0.00 49 1017.9
20260505150745 2 290 24.1 33.8 0.00 0.00 0.00 51 1018.0
20260505124749 -1 291 16.1 19.3 0.00 0.00 0.00 69 1017.0
20260505123751 -1 293 16.1 19.3 0.00 0.00 0.00 70 1017.0
20260505122751 -1 291 16.1 17.7 0.00 0.00 0.00 71 1016.9
20260505121752 -2 285 14.5 19.3 0.00 0.00 0.00 71 1016.8
20260505120813 -2 290 16.1 19.3 0.00 0.00 0.00 73 1016.6
20260505115756 -2 282 14.5 17.7 0.00 0.00 0.00 73 1016.5
20260505114739 -2 289 16.1 19.3 0.00 0.00 0.00 73 1016.5
20260505113741 -2 289 17.7 19.3 0.00 0.00 0.00 73 1016.4
20260505112742 -2 290 16.1 16.1 0.00 0.00 0.00 73 1016.3
20260505111747 -2 293 9.7 17.7 0.00 0.00 0.00 72 1016.2
20260505110746 -2 292 14.5 19.3 0.00 0.00 0.00 72 1016.2
20260505101753 -1 279 11.3 16.1 0.00 0.00 0.00 69 1016.0
20260505100758 -1 284 9.7 16.1 0.00 0.00 0.00 68 1016.0
20260505095742 -1 290 12.9 16.1 0.00 0.00 0.00 69 1015.7
20260505094741 -2 293 11.3 11.3 0.00 0.00 0.00 72 1015.7
20260505093800 -1 292 6.4 9.7 0.00 0.00 0.00 70 1015.6
20260505092741 -1 292 6.4 14.5 0.00 0.00 0.00 69 1015.5
20260505091800 0 282 8.0 11.3 0.00 0.00 0.00 67 1015.5
20260505090801 0 273 9.7 16.1 0.00 0.00 0.00 67 1015.5
20260505085746 0 278 9.7 16.1 0.00 0.00 0.00 65 1015.4
20260505084808 0 277 8.0 11.3 0.00 0.00 0.00 64 1015.2
20260505083745 0 270 8.0 11.3 0.00 0.00 0.00 64 1015.3
20260505082747 0 266 8.0 9.7 0.00 0.00 0.00 65 1015.2
20260505081746 0 266 8.0 11.3 0.00 0.00 0.00 65 1015.2
20260505080753 0 289 8.0 9.7 0.00 0.00 0.00 67 1015.1
20260505075754 -1 305 4.8 6.4 0.00 0.00 0.00 67 1015.1
20260505074814 0 305 4.8 8.0 0.00 0.00 0.00 65 1014.9
20260505073752 0 304 3.2 4.8 0.00 0.00 0.00 63 1014.9
20260505072812 1 304 0.0 3.2 0.00 0.00 0.00 62 1014.8
20260505071759 1 304 0.0 0.0 0.00 0.00 0.00 61 1014.8
20260505070739 1 304 0.0 3.2 0.00 0.00 0.00 61 1014.9
20260505065742 1 304 0.0 3.2 0.00 0.00 0.00 60 1014.8
20260505064746 2 304 0.0 4.8 0.00 0.00 0.00 60 1014.8
20260505063745 2 304 3.2 9.7 0.00 0.00 0.00 59 1014.8
20260505062753 2 306 8.0 9.7 0.00 0.00 0.00 59 1015.5
20260505061754 2 317 4.8 9.7 0.00 0.00 0.00 59 1015.4
20260505060756 1 323 4.8 8.0 0.00 0.00 0.00 61 1015.4
20260505055756 0 323 6.4 8.0 0.00 0.00 0.00 62 1015.3
20260505054744 0 323 4.8 8.0 0.00 0.00 0.00 61 1015.2
20260505053745 1 323 4.8 6.4 0.00 0.00 0.00 63 1015.1
20260505052745 1 323 6.4 6.4 0.00 0.00 0.00 58 1015.0
20260505051748 1 323 4.8 6.4 0.00 0.00 0.00 58 1015.0
20260505050752 1 323 4.8 6.4 0.00 0.00 0.00 58 1014.9
20260505041743 3 300 4.8 11.3 0.00 0.00 0.00 50 1014.5
20260505040807 4 300 4.8 16.1 0.00 0.00 0.00 48 1014.6
20260505035807 5 294 12.9 19.3 0.00 0.00 0.00 47 1014.4
20260505034747 5 311 9.7 19.3 0.00 0.00 0.00 46 1014.3
20260505033746 5 312 14.5 24.1 0.00 0.00 0.00 45 1014.1
20260505032754 5 299 25.7 25.7 0.00 0.00 0.00 44 1014.1
20260505031756 5 295 25.7 25.7 0.00 0.00 0.00 44 1013.9
20260505030758 5 304 17.7 32.2 0.00 0.00 0.00 43 1013.8
20260505025757 5 284 14.5 25.7 0.00 0.00 0.00 44 1013.7
20260505024743 5 314 20.9 29.0 0.00 0.00 0.00 43 1013.5
20260505023748 6 306 27.4 32.2 0.00 0.00 0.00 43 1013.4
20260505022809 6 309 16.1 30.6 0.00 0.00 0.00 44 1013.2
20260505021808 6 297 17.7 29.0 0.00 0.00 0.00 44 1012.9
20260505020746 6 311 22.5 35.4 0.00 0.00 0.00 44 1012.8
20260505015750 6 315 25.7 38.6 0.00 0.00 0.00 43 1012.7
20260505014749 6 310 19.3 35.4 0.00 0.00 0.00 45 1012.6
20260505013750 6 306 27.4 40.2 0.00 0.00 0.00 45 1012.4
20260505012751 6 300 24.1 45.1 0.00 0.00 0.00 44 1012.4
20260505011809 6 308 33.8 40.2 0.00 0.00 0.00 44 1012.2
20260505010756 7 313 29.0 41.8 0.00 0.00 0.00 42 1012.0
20260505005755 7 296 29.0 41.8 0.00 0.00 0.00 43 1013.0
20260505004753 7 304 32.2 45.1 0.00 0.00 0.00 44 1012.8
20260505003755 7 316 32.2 41.8 0.00 0.00 0.00 45 1012.9
20260505002753 7 304 32.2 48.3 0.00 0.00 0.00 42 1013.0
20260505001740 7 298 29.0 41.8 0.00 0.00 0.00 44 1012.7
20260505000743 7 315 16.1 45.1 0.00 0.00 0.00 47 1012.6
20260504235744 7 323 41.8 41.8 0.00 0.00 0.00 45 1012.7
20260504234746 7 304 37.0 46.7 0.00 0.00 0.00 45 1012.5
20260504233805 7 300 45.1 45.1 0.00 0.00 0.00 46 1012.5
20260504232752 7 277 37.0 45.1 0.00 0.00 0.00 46 1012.3
20260504231753 8 298 43.5 46.7 0.00 0.00 0.00 45 1012.2
20260504230753 8 306 33.8 45.1 0.00 0.00 0.00 46 1012.2
20260504225815 8 286 35.4 51.5 0.00 0.00 0.00 44 1012.0
20260504224755 8 309 38.6 51.5 0.00 0.00 0.00 43 1011.9
20260504223759 8 288 41.8 51.5 0.00 0.00 0.00 43 1012.0
20260504222759 9 294 30.6 64.4 0.00 0.00 0.00 44 1011.7
20260504221759 8 304 37.0 53.1 0.00 0.00 0.00 45 1011.9
20260504220740 9 295 37.0 56.3 0.00 0.00 0.00 42 1011.7
20260504215745 8 282 40.2 54.7 0.00 0.00 0.00 45 1011.4
20260504214745 9 293 43.5 57.9 0.00 0.00 0.00 42 1011.5
20260504213748 8 304 37.0 51.5 0.00 0.00 0.00 43 1011.5
20260504212749 8 294 37.0 51.5 0.00 0.00 0.00 43 1011.4
20260504211754 8 290 30.6 53.1 0.00 0.00 0.00 42 1011.4
20260504210755 9 315 38.6 53.1 0.00 0.00 0.00 42 1011.5
20260504205755 9 290 41.8 53.1 0.00 0.00 0.00 41 1011.5
20260504204819 9 298 24.1 57.9 0.00 0.00 0.00 41 1011.4
20260504203759 10 317 35.4 53.1 0.00 0.00 0.00 40 1011.4
20260504202742 9 321 29.0 51.5 0.00 0.00 0.00 40 1011.5
20260504201743 10 305 33.8 51.5 0.00 0.00 0.00 40 1011.4
20260504200744 10 275 46.7 51.5 0.00 0.00 0.00 40 1011.2
20260504195745 10 302 32.2 53.1 0.00 0.00 0.00 40 1011.2
20260504194750 9 317 41.8 51.5 0.00 0.00 0.00 39 1011.2
20260504193811 9 292 46.7 53.1 0.00 0.00 0.00 41 1012.2
20260504192751 10 296 41.8 61.2 0.00 0.00 0.00 41 1012.2
20260504191757 10 313 37.0 56.3 0.00 0.00 0.00 41 1011.9
20260504190817 9 296 33.8 51.5 0.00 0.00 0.00 42 1011.9
20260504185759 9 300 45.1 51.5 0.00 0.00 0.00 41 1012.0
20260504184740 10 288 35.4 62.8 0.00 0.00 0.00 41 1011.8
20260504183803 10 294 46.7 49.9 0.00 0.00 0.00 40 1011.7
20260504182743 10 279 38.6 62.8 0.00 0.00 0.00 39 1011.6
20260504181751 9 284 38.6 53.1 0.00 0.00 0.00 40 1011.7
20260504180754 10 294 27.4 51.5 0.00 0.00 0.00 40 1011.6